• In Hungary
  • List of Countries
  • For 7 days
  • Water Temperature
  • Satellite Maps
  • Weather Map
  • News
  • Weather Widgets
  • user-avatar
    Login

    Hourly Weather Lankaran

    Today, 18 January, Thursday

    Time Temperature Precipitation Wind Pressure Humidity
    00:00 -4°C° 0 mm 2 mps 629 mmHg 63%
    01:00 -4°C° 0 mm 2 mps 629 mmHg 63%
    02:00 -4°C° 0 mm 2 mps 628 mmHg 62%
    03:00 -4°C° 0 mm 2 mps 628 mmHg 63%
    04:00 -5°C° 0 mm 3 mps 628 mmHg 63%
    05:00 -5°C° 0 mm 3 mps 628 mmHg 63%
    06:00 -5°C° 0 mm 3 mps 628 mmHg 63%
    07:00 -4°C° 0 mm 3 mps 628 mmHg 61%
    08:00 -2°C° 0 mm 3 mps 629 mmHg 60%
    09:00 -1°C° 0 mm 3 mps 629 mmHg 58%
    10:00 -1°C° 0 mm 4 mps 629 mmHg 56%
    11:00 0°C° 0 mm 4 mps 629 mmHg 54%
    12:00 +1°C° 0 mm 5 mps 629 mmHg 52%
    13:00 +2°C° 0 mm 5 mps 628 mmHg 52%
    14:00 +2°C° 0 mm 5 mps 628 mmHg 52%
    15:00 +2°C° 0 mm 6 mps 627 mmHg 52%
    16:00 +1°C° 0 mm 5 mps 627 mmHg 55%
    17:00 0°C° 0 mm 5 mps 626 mmHg 57%
    18:00 -2°C° 0 mm 5 mps 626 mmHg 59%
    19:00 -2°C° 0 mm 5 mps 626 mmHg 61%
    20:00 -2°C° 0 mm 5 mps 626 mmHg 62%
    21:00 -2°C° 0 mm 4 mps 626 mmHg 64%
    22:00 -2°C° 0 mm 4 mps 626 mmHg 65%
    23:00 -2°C° 0 mm 5 mps 626 mmHg 65%

    Tomorrow, 19 January, Friday

    Time Temperature Precipitation Wind Pressure Humidity
    00:00 -2°C° 0 mm 5 mps 625 mmHg 66%
    01:00 -2°C° 0 mm 5 mps 625 mmHg 66%
    02:00 -2°C° 0 mm 5 mps 625 mmHg 67%
    03:00 -2°C° 0 mm 5 mps 625 mmHg 67%
    04:00 -2°C° 0 mm 4 mps 625 mmHg 67%
    05:00 -2°C° 0 mm 4 mps 625 mmHg 67%
    06:00 -2°C° 0 mm 4 mps 625 mmHg 67%
    07:00 -1°C° 0 mm 4 mps 626 mmHg 63%
    08:00 0°C° 0 mm 4 mps 626 mmHg 60%
    09:00 +1°C° 0 mm 4 mps 627 mmHg 56%
    10:00 +3°C° 0 mm 4 mps 627 mmHg 52%
    11:00 +4°C° 0 mm 4 mps 627 mmHg 48%
    12:00 +6°C° 0 mm 5 mps 627 mmHg 45%
    13:00 +6°C° 0 mm 4 mps 627 mmHg 43%
    14:00 +6°C° 0 mm 4 mps 627 mmHg 42%
    15:00 +6°C° 0 mm 4 mps 627 mmHg 41%
    16:00 +4°C° 0 mm 4 mps 627 mmHg 43%
    17:00 +3°C° 0 mm 3 mps 627 mmHg 45%
    18:00 +2°C° 0 mm 2 mps 627 mmHg 48%
    19:00 +2°C° 0 mm 2 mps 627 mmHg 47%
    20:00 +2°C° 0 mm 2 mps 627 mmHg 46%
    21:00 +3°C° 0 mm 1 mps 627 mmHg 45%
    22:00 +3°C° 0 mm 1 mps 627 mmHg 48%
    23:00 +3°C° 0 mm 1 mps 628 mmHg 50%

    Day after tomorrow, 20 January, Saturday

    Time Temperature Precipitation Wind Pressure Humidity
    00:00 +2°C° 0 mm 2 mps 628 mmHg 53%
    01:00 +2°C° 0.1 mm 2 mps 628 mmHg 56%
    02:00 +1°C° 0.1 mm 2 mps 628 mmHg 58%
    03:00 0°C° 0.1 mm 3 mps 628 mmHg 61%
    04:00 -1°C° 0.1 mm 2 mps 629 mmHg 64%
    05:00 -1°C° 0.1 mm 2 mps 629 mmHg 67%
    06:00 -1°C° 0.1 mm 2 mps 630 mmHg 70%
    07:00 -1°C° 0.1 mm 2 mps 630 mmHg 70%
    08:00 +1°C° 0.1 mm 2 mps 631 mmHg 71%
    09:00 +1°C° 0.1 mm 2 mps 632 mmHg 71%
    10:00 +1°C° 0.1 mm 2 mps 632 mmHg 72%
    11:00 +2°C° 0.1 mm 2 mps 632 mmHg 72%
    12:00 +2°C° 0.1 mm 2 mps 632 mmHg 73%
    13:00 +2°C° 0.2 mm 2 mps 633 mmHg 74%
    14:00 +2°C° 0.2 mm 2 mps 633 mmHg 75%
    15:00 +2°C° 0.2 mm 2 mps 633 mmHg 77%
    16:00 +1°C° 0.1 mm 2 mps 633 mmHg 80%
    17:00 +1°C° 0.1 mm 2 mps 634 mmHg 83%
    18:00 -1°C° 0.1 mm 2 mps 634 mmHg 86%
    19:00 -1°C° 0.1 mm 2 mps 634 mmHg 84%
    20:00 -2°C° 0.1 mm 2 mps 634 mmHg 83%
    21:00 -2°C° 0.1 mm 2 mps 634 mmHg 82%
    22:00 -2°C° 0 mm 2 mps 634 mmHg 78%
    23:00 -2°C° 0 mm 3 mps 634 mmHg 73%

    21 January, Sunday

    Time Temperature Precipitation Wind Pressure Humidity
    00:00 -2°C° 0 mm 3 mps 634 mmHg 69%
    01:00 -2°C° 0 mm 3 mps 634 mmHg 66%
    02:00 -2°C° 0 mm 3 mps 634 mmHg 62%
    03:00 -2°C° 0 mm 3 mps 634 mmHg 59%
    04:00 -2°C° 0 mm 3 mps 634 mmHg 59%
    05:00 -4°C° 0 mm 3 mps 634 mmHg 60%
    06:00 -4°C° 0 mm 3 mps 634 mmHg 60%
    07:00 -1°C° 0 mm 3 mps 634 mmHg 58%
    08:00 0°C° 0 mm 3 mps 634 mmHg 55%
    09:00 +1°C° 0 mm 3 mps 635 mmHg 53%
    10:00 +2°C° 0 mm 3 mps 635 mmHg 49%
    11:00 +4°C° 0 mm 3 mps 635 mmHg 46%
    12:00 +5°C° 0 mm 4 mps 634 mmHg 42%
    13:00 +5°C° 0 mm 4 mps 634 mmHg 42%
    14:00 +5°C° 0 mm 4 mps 634 mmHg 41%
    15:00 +7°C° 0 mm 3 mps 633 mmHg 41%
    16:00 +4°C° 0 mm 3 mps 633 mmHg 44%
    17:00 +3°C° 0 mm 3 mps 633 mmHg 47%
    18:00 +1°C° 0 mm 3 mps 633 mmHg 50%
    19:00 +1°C° 0 mm 3 mps 633 mmHg 47%
    20:00 +1°C° 0 mm 3 mps 633 mmHg 45%
    21:00 +2°C° 0 mm 2 mps 633 mmHg 42%
    22:00 +1°C° 0 mm 2 mps 632 mmHg 42%
    23:00 +1°C° 0 mm 2 mps 632 mmHg 42%

    22 January, Monday

    Time Temperature Precipitation Wind Pressure Humidity
    00:00 +1°C° 0 mm 2 mps 632 mmHg 41%
    01:00 +1°C° 0 mm 2 mps 632 mmHg 41%
    02:00 +1°C° 0 mm 2 mps 632 mmHg 40%
    03:00 +1°C° 0 mm 2 mps 631 mmHg 40%
    04:00 +1°C° 0 mm 2 mps 631 mmHg 40%
    05:00 +1°C° 0 mm 2 mps 631 mmHg 39%
    06:00 +1°C° 0 mm 2 mps 631 mmHg 39%
    07:00 +2°C° 0 mm 2 mps 631 mmHg 39%
    08:00 +3°C° 0 mm 2 mps 631 mmHg 39%
    09:00 +4°C° 0 mm 2 mps 631 mmHg 39%
    10:00 +5°C° 0 mm 3 mps 631 mmHg 38%
    11:00 +7°C° 0 mm 3 mps 630 mmHg 37%
    12:00 +8°C° 0 mm 3 mps 630 mmHg 36%
    13:00 +8°C° 0 mm 3 mps 630 mmHg 36%
    14:00 +8°C° 0 mm 3 mps 629 mmHg 35%
    15:00 +7°C° 0 mm 4 mps 629 mmHg 34%
    16:00 +7°C° 0 mm 3 mps 629 mmHg 36%
    17:00 +4°C° 0 mm 3 mps 628 mmHg 38%
    18:00 +2°C° 0 mm 3 mps 628 mmHg 40%
    19:00 +2°C° 0 mm 3 mps 628 mmHg 38%
    20:00 +1°C° 0 mm 3 mps 628 mmHg 37%
    21:00 0°C° 0 mm 4 mps 628 mmHg 36%
    22:00 0°C° 0 mm 4 mps 627 mmHg 36%
    23:00 0°C° 0 mm 4 mps 627 mmHg 36%

    23 January, Tuesday

    Time Temperature Precipitation Wind Pressure Humidity
    00:00 0°C° 0 mm 4 mps 627 mmHg 36%
    01:00 -1°C° 0 mm 4 mps 627 mmHg 37%
    02:00 -1°C° 0 mm 4 mps 627 mmHg 37%
    03:00 -1°C° 0 mm 4 mps 627 mmHg 38%
    04:00 0°C° 0 mm 3 mps 627 mmHg 38%
    05:00 0°C° 0 mm 3 mps 628 mmHg 39%
    06:00 -1°C° 0 mm 3 mps 628 mmHg 39%
    07:00 +1°C° 0 mm 3 mps 628 mmHg 38%
    08:00 +2°C° 0 mm 3 mps 629 mmHg 37%
    09:00 +3°C° 0 mm 3 mps 629 mmHg 36%
    10:00 +4°C° 0 mm 3 mps 629 mmHg 35%
    11:00 +6°C° 0 mm 4 mps 629 mmHg 34%
    12:00 +7°C° 0 mm 4 mps 629 mmHg 33%
    13:00 +7°C° 0 mm 4 mps 629 mmHg 33%
    14:00 +7°C° 0 mm 4 mps 629 mmHg 34%
    15:00 +7°C° 0 mm 4 mps 629 mmHg 34%
    16:00 +5°C° 0 mm 4 mps 629 mmHg 37%
    17:00 +4°C° 0 mm 3 mps 628 mmHg 40%
    18:00 +3°C° 0 mm 3 mps 628 mmHg 43%
    19:00 +2°C° 0 mm 3 mps 628 mmHg 43%
    20:00 +3°C° 0 mm 2 mps 628 mmHg 43%
    21:00 +3°C° 0 mm 2 mps 628 mmHg 43%
    22:00 +3°C° 0 mm 2 mps 628 mmHg 45%
    23:00 +3°C° 0 mm 2 mps 628 mmHg 46%
    Show more